sat.trackr.live / text

‹ back to catalog

STARLINK-37468

NORAD 68857 · 2026-094U

PAYLOAD ACTIVE UNKNOWN

§ Identity

Operator
Country
US
Launch date
2026-04-26
Launch site
AFWTR
Launch vehicle
Mass (kg)
RCS (m²)

Purposes: comms

External: N2YO · Heavens-Above · Gunter

§ Orbital elements

Epoch: 2026-05-25T04:00:03.998880Z

Period
92.95 min
Inclination
97.2844°
Eccentricity
0.0001338
Mean motion
15.49187405 rev/d
Perigee alt
418.2 km
Apogee alt
420.0 km
Semi-major
6,797.2 km
B*
-3.5906e-4
RAAN
159.9525°
Arg perigee
70.0681°
Mean anomaly
213.2591°
Rev number
567

§ Raw data

STARLINK-374681 68857U 26094U   26145.16671295 -.00019569  00000+0 -35906-3 0  99972 68857  97.2844 159.9525 0001338  70.0681 213.2591 15.49187405  5678

JSON: /api/v1/satellites/68857 · /tle

For live sub-satellite position, see the globe view (requires WebGL).

§ Visibility from observer

Set your observer location to see the next 7 days of passes ≥ 10°. The values pass through the URL so the page stays shareable.

No JS? Fill the form by hand. The geolocation button needs JavaScript.